Left ArrowRight Arrow

41.86663, -103.66717

Hourly Observations for June 16, 2024

Temp ( °F °C ) Dew Point ( °F °C ) Humidity (%) Winds ( mph kmh ) Pressure ( in mb ) Visibility ( mi km ) Precip ( " mm )
12:53 am 00:53 Clear 74 23.3 45 7.2 36 36 VRB 5 7 29.58 1002 10 16 0.00 0.00
1:53 am 01:53 Clear 70 21.1 46 7.8 42 42 S 5 7 29.57 1001 10 16 0.00 0.00
2:53 am 02:53 Clear 62 16.7 45 7.2 53 53 N 8 13 29.60 1002 10 16 0.00 0.00
3:53 am 03:53 Clear 64 17.8 44 6.7 48 48 NNW 14 22 29.61 1003 10 16 0.00 0.00
4:53 am 04:53 Clear 58 14.4 47 8.3 67 67 WNW 14 22 29.68 1005 10 16 0.00 0.00
5:53 am 05:53 Sunny 57 13.9 46 7.8 67 67 NW 7 11 29.73 1007 10 16 0.00 0.00
6:53 am 06:53 Sunny 62 16.7 43 6.1 50 50 NNE 5 7 29.74 1007 10 16 0.00 0.00
7:53 am 07:53 Sunny 64 17.8 43 6.1 46 46 W 7 11 29.75 1007 10 16 0.00 0.00
8:53 am 08:53 Sunny 67 19.4 43 6.1 42 42 NE 7 11 29.76 1008 10 16 0.00 0.00
9:53 am 09:53 Sunny 69 20.6 38 3.3 32 32 NNE 10 17 29.76 1008 10 16 0.00 0.00
10:53 am 10:53 Sunny 73 22.8 33 0.6 23 23 NNE 12 19 29.74 1007 10 16 0.00 0.00
11:53 am 11:53 Sunny 76 24.4 34 1.1 22 22 NE 9 15 29.71 1006 10 16 0.00 0.00
12:53 pm 12:53 Sunny 79 26.1 35 1.7 20 20 E 12 19 29.68 1005 10 16 0.00 0.00
1:53 pm 13:53 Sunny 80 26.7 36 2.2 20 20 E 10 17 29.67 1005 10 16 0.00 0.00
2:53 pm 14:53 Sunny 81 27.2 40 4.4 23 23 ESE 13 20 29.67 1005 10 16 0.00 0.00
3:53 pm 15:53 Sunny 83 28.3 43 6.1 24 24 ESE 14 22 29.65 1004 10 16 0.00 0.00
4:53 pm 16:53 Sunny 79 26.1 46 7.8 31 31 undefined N/A 29.66 1004 10 16 0.00 0.00
5:53 pm 17:53 Sunny 79 26.1 50 10 36 36 SE 12 19 29.65 1004 10 16 0.00 0.00
6:53 pm 18:53 Sunny 78 25.6 50 10 37 37 E 12 19 29.63 1004 10 16 0.00 0.00
7:53 pm 19:53 Sunny 75 23.9 51 10.6 43 43 ENE 15 24 29.62 1003 10 16 0.00 0.00
8:53 pm 20:53 Mostly Cloudy 73 22.8 51 10.6 46 46 E 14 22 29.62 1003 10 16 0.00 0.00
9:53 pm 21:53 Mostly Cloudy 71 21.7 53 11.7 53 53 E 15 24 29.62 1003 10 16 0.00 0.00
10:53 pm 22:53 Clear 69 20.6 51 10.6 53 53 E 12 19 29.59 1002 10 16 0.00 0.00
11:53 pm 23:53 Mostly Cloudy 64 17.8 52 11.1 65 65 NE 17 28 29.60 1003 10 16 0.00 0.00

Powered by Vaisala Xweather